Time,TemperatureF,DewpointF,PressureIn,WindDirection,WindDirectionDegrees,WindSpeedMPH,WindSpeedGustMPH,Humidity,HourlyPrecipIn,Conditions,Clouds,dailyrainin,SoftwareType,DateUTC
2013-06-07 17:28:00,84.0,74.0,29.88,ESE,110,0.0,2.0,72,-99.99,,,-99.99,,2013-06-07 22:28:00,
2013-06-07 17:46:00,83.0,75.0,29.88,ESE,110,0.0,0.0,77,-99.99,,,-99.99,,2013-06-07 22:46:00,
2013-06-07 17:55:00,82.0,75.0,29.88,SE,135,0.0,1.0,80,-99.99,,,-99.99,,2013-06-07 22:55:00,
2013-06-07 18:18:00,81.0,74.0,29.87,South,185,0.0,1.0,79,-99.99,,,-99.99,,2013-06-07 23:18:00,
2013-06-07 18:36:00,80.0,75.0,29.86,South,185,0.0,0.0,84,0.00,,,-99.99,,2013-06-07 23:36:00,
2013-06-07 18:48:00,80.0,75.0,29.86,South,185,0.0,0.0,84,0.00,,,-99.99,,2013-06-07 23:48:00,
2013-06-07 19:02:00,80.0,73.0,29.86,ESE,107,0.0,0.0,79,0.00,,,-99.99,,2013-06-08 00:02:00,
2013-06-07 19:09:00,80.0,73.0,29.87,ESE,107,0.0,1.0,79,0.00,,,-99.99,,2013-06-08 00:09:00,
2013-06-07 19:16:00,79.0,73.0,29.87,ESE,107,0.0,0.0,81,0.00,,,-99.99,,2013-06-08 00:16:00,
2013-06-07 19:26:00,79.0,73.0,29.87,ESE,107,0.0,0.0,81,0.00,,,-99.99,,2013-06-08 00:26:00,
2013-06-07 19:34:00,78.0,72.0,29.87,ESE,107,0.0,0.0,83,0.00,,,-99.99,,2013-06-08 00:34:00,
2013-06-07 19:44:00,78.0,72.0,29.87,ESE,107,0.0,0.0,83,0.00,,,-99.99,,2013-06-08 00:44:00,
2013-06-07 19:59:00,77.0,72.0,29.87,ESE,109,0.0,1.0,85,0.00,,,-99.99,,2013-06-08 00:59:00,
2013-06-07 20:05:00,77.0,72.0,29.88,ESE,109,0.0,0.0,86,0.00,,,-99.99,,2013-06-08 01:05:00,
2013-06-07 20:18:00,77.0,72.0,29.88,ESE,109,0.0,0.0,86,0.00,,,-99.99,,2013-06-08 01:18:00,
2013-06-07 20:26:00,76.0,72.0,29.87,ESE,109,0.0,1.0,87,0.00,,,-99.99,,2013-06-08 01:26:00,
2013-06-07 20:37:00,76.0,72.0,29.88,ESE,109,0.0,0.0,88,0.00,,,-99.99,,2013-06-08 01:37:00,
2013-06-07 20:44:00,76.0,72.0,29.88,ESE,109,0.0,0.0,88,0.00,,,-99.99,,2013-06-08 01:44:00,
2013-06-07 21:00:00,74.0,71.0,29.89,SE,128,0.0,1.0,90,0.00,,,-99.99,,2013-06-08 02:00:00,
2013-06-07 21:08:00,74.0,71.0,29.89,SE,129,0.0,1.0,91,0.00,,,-99.99,,2013-06-08 02:08:00,
2013-06-07 21:14:00,74.0,71.0,29.89,SE,129,0.0,1.0,91,0.00,,,-99.99,,2013-06-08 02:14:00,
2013-06-07 21:28:00,73.0,70.0,29.89,SE,128,0.0,0.0,90,0.00,,,-99.99,,2013-06-08 02:28:00,
2013-06-07 21:33:00,72.0,70.0,29.90,SE,128,0.0,0.0,92,0.00,,,-99.99,,2013-06-08 02:33:00,
2013-06-07 21:47:00,72.0,70.0,29.90,SE,128,0.0,0.0,92,0.00,,,-99.99,,2013-06-08 02:47:00,
2013-06-07 21:54:00,72.0,70.0,29.90,ESE,115,0.0,1.0,92,0.00,,,-99.99,,2013-06-08 02:54:00,
2013-06-07 22:08:00,71.0,69.0,29.91,ESE,115,0.0,0.0,92,0.00,,,-99.99,,2013-06-08 03:08:00,
2013-06-07 22:15:00,71.0,69.0,29.91,ESE,115,0.0,0.0,92,0.00,,,-99.99,,2013-06-08 03:15:00,
2013-06-07 22:26:00,71.0,69.0,29.91,ESE,115,0.0,0.0,92,0.00,,,-99.99,,2013-06-08 03:26:00,
2013-06-07 22:36:00,70.0,68.0,29.91,ESE,115,0.0,0.0,92,0.00,,,-99.99,,2013-06-08 03:36:00,
2013-06-07 23:00:00,70.0,68.0,29.91,ESE,115,0.0,0.0,93,0.00,,,-99.99,,2013-06-08 04:00:00,
2013-06-07 23:03:00,69.0,67.0,29.92,ESE,115,0.0,0.0,93,0.00,,,-99.99,,2013-06-08 04:03:00,
2013-06-07 23:12:00,69.0,67.0,29.92,ESE,115,0.0,0.0,93,0.00,,,-99.99,,2013-06-08 04:12:00,
2013-06-07 23:23:00,69.0,67.0,29.91,ESE,115,0.0,0.0,94,0.00,,,-99.99,,2013-06-08 04:23:00,
2013-06-07 23:33:00,69.0,67.0,29.92,ESE,115,0.0,0.0,94,0.00,,,-99.99,,2013-06-08 04:33:00,
2013-06-07 23:42:00,69.0,67.0,29.92,ESE,115,0.0,0.0,94,0.00,,,-99.99,,2013-06-08 04:42:00,
2013-06-07 23:53:00,68.0,66.0,29.92,ESE,115,0.0,0.0,94,0.00,,,-99.99,,2013-06-08 04:53:00,